User: anonymous   Login
Location: Carrières
(48.9495°N, 2.0407°E)
Time: 05:32:44
(UTC+00:00)
Language:

Cosmos 1241 Rocket - Orbit

View from above orbital plane
View from above orbital plane
View from above satellite
View from above satellite

Ground track
Ground track

The orbit data is extracted from the following two-line orbital elements,

1 12150U 81006B   23157.15492526 -.00000032  00000-0  48905-4 0  9992
2 12150  65.8221  64.4551 0058712 223.7077 135.9330 13.77260349129076
Epoch (UTC): 06 June 2023 03:43:05
Eccentricity: 0.0058712
inclination: 65.8221°
perigee height: 930 km
apogee height: 1017 km
right ascension of ascending node: 64.4551°
argument of perigee: 223.7077°
revolutions per day: 13.77260349
mean anomaly at epoch: 135.9330°
orbit number at epoch: 12907

The dashed part of the orbit path shows where the satellite is in the earth's shadow,  

DLR